[[{"header":{"parameterUnit":"m.s-1","parameterCategory":1,"la1":30.2991,"la2":30.254,"lo1":-89.0895,"lo2":-89.0444,"dy":0.0017,"dx":0.0017,"nx":28,"ny":28,"refTime":"2025-01-21T03:00:00:Z","depth":0,"parameterNumber":2,"parameterNumberName":"U-component_of_WINDS"},"data":[0,0,0,0,0,0,0,0,0,0,0,0,0,0,0,0,0,0,0,0,0,0,0,0,0,0,0,0,0,0,0,0,0,0,0,0,0,0,0,0,0,0,0,0,0,0,0,0,0,0,0,0,0,0,0,0,0,0,-4.3135,-4.3135,0,-4.3116,-4.3116,-4.3116,-4.2964,-4.296,-4.2957,-4.2953,-4.2938,-4.2941,-4.2944,0,0,0,0,0,0,0,0,0,0,0,0,0,-4.3044,-4.3046,-4.3135,-4.3135,-4.3135,-4.3116,-4.3116,-4.3116,-4.2965,-4.296,-4.2956,-4.2951,-4.2937,-4.2941,-4.2945,0,0,0,0,0,0,0,0,0,0,0,0,0,-4.306,-4.3047,-4.3135,-4.3057,-4.305,-4.3116,-4.3116,-4.3116,-4.2966,-4.296,-4.2954,-4.2949,-4.2936,-4.2941,-4.2945,-4.3087,0,0,-4.2959,-4.2961,0,0,0,0,0,0,0,0,-4.306,-4.3064,-4.3069,-4.3063,-4.3055,-4.3036,-4.3078,-4.3106,-4.2967,-4.2998,-4.2953,-4.2946,-4.2976,-4.2977,-4.2986,-4.3086,-4.3085,-4.296,-4.2963,-4.2965,-4.2966,0,0,0,0,0,0,0,-4.3059,-4.3064,-4.3128,-4.3069,-4.306,-4.3024,-4.302,-4.3083,-4.3019,-4.2995,-4.2984,-4.2983,-4.2971,-4.2982,-4.2984,-4.3085,-4.296,-4.2964,-4.2967,-4.2968,-4.3299,-4.3305,0,0,0,0,0,0,-4.3068,-4.3064,-4.3128,-4.3127,-4.3043,-4.303,-4.3026,-4.3048,-4.3018,-4.3007,-4.2988,-4.2976,-4.2976,-4.2979,-4.2983,-4.3147,-4.2965,-4.2969,-4.2972,-4.3293,-4.33,-4.3307,0,0,0,0,0,0,-4.3067,-4.3075,-4.3129,-4.3092,-4.3097,-4.3038,-4.3064,-4.3051,-4.3061,-4.3012,-4.3001,-4.3011,-4.2972,-4.2977,-4.3061,-4.3144,-4.2971,-4.2975,-4.3286,-4.3295,-4.3304,-4.3475,0,0,0,0,0,0,-4.3065,-4.3076,-4.3128,-4.3095,-4.3099,-4.3208,-4.3069,-4.3054,-4.3069,-4.3054,-4.3031,-4.3021,-4.2968,-4.3055,-4.3066,-4.3147,-4.2979,-4.3278,-4.329,-4.3301,-4.3462,-4.3489,-4.3512,0,0,0,0,0,-4.3062,-4.3179,-4.3132,-4.314,-4.3164,-4.3213,-4.3215,-4.315,-4.3076,-4.3129,-4.3098,-4.3022,-4.3133,-4.3065,-4.3076,-4.316,-4.3273,-4.3287,-4.33,-4.3451,-4.3484,-4.3511,0,0,0,0,0,0,-4.3226,-4.3173,-4.312,-4.323,-4.3227,-4.3187,-4.3252,-4.3187,-4.3206,-4.3191,-4.311,-4.3107,-4.3204,-4.319,-4.3116,-4.3295,-4.319,-4.3206,-4.3301,-4.3332,-4.3356,-4.3358,-4.2983,0,0,0,0,0,-4.3274,-4.3317,-4.3269,-4.337,-4.3371,-4.3312,-4.3331,-4.328,-4.3275,-4.3273,-4.3248,-4.3246,-4.328,-4.3305,-4.3333,-4.3458,-4.3451,-4.3521,-4.3546,-4.3567,-4.3583,-4.3647,-4.3678,-4.3351,-4.3351,-4.3351,0,0,-4.3376,-4.3352,-4.3385,-4.3402,-4.3394,-4.3441,-4.3312,-4.3368,-4.3402,-4.3282,-4.336,-4.3342,-4.3334,-4.344,-4.3485,-4.3431,-4.3671,-4.3584,-4.3601,-4.3605,-4.3665,-4.3696,-4.3723,-4.336,-4.3359,-4.3357,0,0,-4.3585,-4.3571,-4.3654,-4.3647,-4.3635,-4.3594,-4.3614,-4.3584,-4.3566,-4.3643,-4.3553,-4.3593,-4.3654,-4.3652,-4.3659,-4.3865,-4.3797,-4.3877,-4.4009,-4.4073,-4.4099,-4.4121,-4.4195,-4.4223,-4.3892,-4.3893,-4.3893,0,-4.3714,-4.378,-4.3705,-4.3766,-4.3776,-4.3666,-4.375,-4.3747,-4.3747,-4.3757,-4.3696,-4.3768,-4.3756,-4.3859,-4.3909,-4.3919,-4.3939,-4.388,-4.4101,-4.4122,-4.4142,-4.4212,-4.424,-4.3903,-4.3901,-4.39,-4.3899,0,-4.3939,-4.3986,-4.4054,-4.4053,-4.4071,-4.4143,-4.4079,-4.4107,-4.4054,-4.402,-4.41,-4.408,-4.4103,-4.4123,-4.4073,-4.4219,-4.4186,-4.4115,-4.4008,-4.4185,-4.4249,-4.4275,-4.3917,-4.3913,-4.391,-4.3908,0,0,-4.4255,-4.4208,-4.4235,-4.4233,-4.421,-4.4246,-4.4312,-4.4332,-4.4357,-4.436,-4.4414,-4.4467,-4.4399,-4.4408,-4.4356,-4.4412,-4.4577,-4.4333,-4.4332,-4.438,-4.4738,-4.4793,-4.4825,-4.453,-4.4535,-4.4539,-4.4738,0,-4.4456,-4.4566,-4.4499,-4.462,-4.4663,-4.4558,-4.4615,-4.4609,-4.4578,-4.4611,-4.4577,-4.4616,-4.4524,-4.4528,-4.4578,-4.4547,-4.4648,-4.4531,-4.4582,-4.4585,-4.4589,-4.4859,-4.4918,-4.5107,-4.4763,-4.4767,-4.477,0,-4.4707,-4.4718,-4.4843,-4.481,-4.4825,-4.4879,-4.489,-4.4922,-4.4912,-4.4886,-4.4894,-4.4828,-4.4892,-4.4785,-4.4872,-4.4794,-4.4811,-4.4798,-4.4804,-4.4808,-4.469,-4.4871,-4.5166,-4.5195,-4.4809,-4.4806,-4.4803,0,-4.4926,-4.4971,-4.5051,-4.5053,-4.5016,-4.5056,-4.5043,-4.5027,-4.5043,-4.5053,-4.5063,-4.5082,-4.5093,-4.511,-4.5051,-4.4978,-4.5147,-4.5035,-4.5128,-4.513,-4.517,-4.5169,-4.5473,-4.5179,-4.5178,-4.5178,-4.5177,0,-4.516,-4.5241,-4.5149,-4.5199,-4.5286,-4.5207,-4.5296,-4.5272,-4.5258,-4.5302,-4.5212,-4.5256,-4.5174,-4.521,-4.5164,-4.5244,-4.5249,-4.5231,-4.5218,-4.524,-4.5243,-4.5251,-4.5237,-4.5185,-4.5184,-4.5182,-4.5181,0,-4.542,-4.5362,-4.5442,-4.54,-4.5391,-4.5457,-4.5421,-4.5466,-4.5428,-4.5485,-4.5493,-4.5435,-4.5472,-4.5414,-4.5445,-4.5414,-4.5524,-4.5491,-4.5528,-4.5518,-4.5616,-4.5608,-4.5938,-4.5977,-4.5656,-4.566,-4.5662,0,-4.5574,-4.5633,-4.5596,-4.5618,-4.5609,-4.5646,-4.566,-4.5585,-4.5604,-4.5595,-4.5642,-4.567,-4.5689,-4.5753,-4.5714,-4.5737,-4.5704,-4.5818,-4.5707,-4.5727,-4.5707,-4.5705,-4.5711,-4.5842,-4.5846,-4.5849,-4.5851,0,-4.5854,-4.5821,-4.5845,-4.5858,-4.5878,-4.5885,-4.5886,-4.591,-4.583,-4.5856,-4.5891,-4.5906,-4.5935,-4.5966,-4.5978,-4.5966,-4.5897,-4.5886,-4.5909,-4.5933,-4.5952,-4.5944,-4.5591,-4.5879,-4.5877,-4.5874,-4.5873,-4.5872,-4.6066,-4.6113,-4.6094,-4.6123,-4.6115,-4.6118,-4.6157,-4.6122,-4.615,-4.6167,-4.612,-4.6167,-4.6154,-4.6163,-4.6158,-4.6194,-4.6144,-4.6177,-4.6186,-4.6196,-4.6211,-4.5945,-4.6196,-4.6195,-4.6194,-4.6193,-4.6193,0,-4.6342,-4.6323,-4.635,-4.6353,-4.6376,-4.6305,-4.6302,-4.6327,-4.6368,-4.636,-4.6379,-4.642,-4.6448,-4.641,-4.6432,-4.6468,-4.6437,-4.6476,-4.6474,-4.6472,-4.6254,-4.6233,-4.6501,-4.6501,-4.6501,-4.6501,-4.6501,-4.6501,-4.6488,-4.6564,-4.6529,-4.66,-4.6581,-4.6624,-4.6628,-4.663,-4.6623,-4.6671,-4.6693,-4.6667,-4.6648,-4.6667,-4.669,-4.6678,-4.6691,-4.6742,-4.672,-4.6518,-4.6488,-4.6459,-4.6438,-4.6745,-4.6746,-4.6935,-4.6936,-4.6938]},{"header":{"parameterUnit":"m.s-1","parameterCategory":1,"la1":30.2991,"la2":30.254,"lo1":-89.0895,"lo2":-89.0444,"dy":0.0017,"dx":0.0017,"nx":28,"ny":28,"refTime":"2025-01-21T03:00:00:Z","depth":0,"parameterNumber":3,"parameterNumberName":"V-component_of_WINDS"},"data":[0,0,0,0,0,0,0,0,0,0,0,0,0,0,0,0,0,0,0,0,0,0,0,0,0,0,0,0,0,0,0,0,0,0,0,0,0,0,0,0,0,0,0,0,0,0,0,0,0,0,0,0,0,0,0,0,0,0,-6.2918,-6.2919,0,-6.2993,-6.2994,-6.2995,-6.2931,-6.2928,-6.2926,-6.2923,-6.2997,-6.3001,-6.3006,0,0,0,0,0,0,0,0,0,0,0,0,0,-6.2713,-6.2717,-6.2918,-6.2919,-6.292,-6.2993,-6.2994,-6.2995,-6.2931,-6.2928,-6.2925,-6.2922,-6.2995,-6.3001,-6.3006,0,0,0,0,0,0,0,0,0,0,0,0,0,-6.2796,-6.2718,-6.2917,-6.2897,-6.2896,-6.2993,-6.2994,-6.2995,-6.2932,-6.2928,-6.2924,-6.292,-6.2994,-6.3,-6.3007,-6.3127,0,0,-6.3027,-6.303,0,0,0,0,0,0,0,0,-6.2792,-6.2804,-6.2899,-6.2898,-6.2897,-6.2949,-6.2949,-6.304,-6.2933,-6.2918,-6.2923,-6.2918,-6.2984,-6.2991,-6.3014,-6.3131,-6.3134,-6.3028,-6.3032,-6.3035,-6.3036,0,0,0,0,0,0,0,-6.2786,-6.28,-6.2947,-6.29,-6.2899,-6.2882,-6.2889,-6.2966,-6.2972,-6.2919,-6.2915,-6.2925,-6.2983,-6.3008,-6.3015,-6.3135,-6.3027,-6.3033,-6.3037,-6.304,-6.3352,-6.3356,0,0,0,0,0,0,-6.2783,-6.2796,-6.2945,-6.295,-6.2834,-6.2889,-6.2897,-6.2936,-6.2971,-6.2973,-6.2928,-6.2921,-6.2998,-6.3007,-6.3017,-6.3159,-6.3034,-6.3041,-6.3045,-6.3348,-6.3353,-6.3358,0,0,0,0,0,0,-6.2779,-6.2797,-6.2942,-6.2872,-6.2889,-6.2896,-6.2941,-6.294,-6.2965,-6.2978,-6.2978,-6.2953,-6.2995,-6.3008,-6.31,-6.3161,-6.3044,-6.305,-6.3343,-6.3349,-6.3355,-6.3446,0,0,0,0,0,0,-6.2773,-6.2796,-6.2843,-6.2873,-6.2893,-6.3025,-6.2945,-6.2944,-6.2977,-6.2969,-6.3001,-6.3003,-6.2993,-6.3091,-6.3107,-6.3168,-6.3055,-6.3337,-6.3346,-6.3353,-6.3437,-6.3454,-6.3469,0,0,0,0,0,-6.2766,-6.2865,-6.2846,-6.2864,-6.2953,-6.3029,-6.304,-6.3028,-6.2982,-6.3029,-6.3037,-6.3002,-6.3152,-6.3101,-6.3118,-6.3183,-6.3333,-6.3343,-6.3353,-6.343,-6.3451,-6.3469,0,0,0,0,0,0,-6.2842,-6.2869,-6.2848,-6.296,-6.2993,-6.3018,-6.3077,-6.3051,-6.3097,-6.3087,-6.3069,-6.3077,-6.3174,-6.3187,-6.313,-6.33,-6.3235,-6.3249,-6.3288,-6.3308,-6.3323,-6.3318,-6.306,0,0,0,0,0,-6.2872,-6.2933,-6.2953,-6.305,-6.3068,-6.307,-6.3103,-6.309,-6.3123,-6.3136,-6.3151,-6.3183,-6.3237,-6.3273,-6.3324,-6.3439,-6.3444,-6.3491,-6.3507,-6.352,-6.3532,-6.3592,-6.3613,-6.3389,-6.3389,-6.3389,0,0,-6.2934,-6.2956,-6.2996,-6.3066,-6.309,-6.3152,-6.3082,-6.3151,-6.3196,-6.3146,-6.3234,-6.3246,-6.328,-6.3384,-6.343,-6.3398,-6.3595,-6.3533,-6.3543,-6.3548,-6.3604,-6.3625,-6.3644,-6.3396,-6.3395,-6.3394,0,0,-6.3079,-6.3103,-6.3185,-6.3211,-6.3248,-6.3248,-6.3268,-6.3297,-6.3303,-6.3391,-6.3354,-6.3407,-6.3501,-6.3526,-6.3551,-6.3703,-6.3672,-6.372,-6.3803,-6.3862,-6.3879,-6.3895,-6.3947,-6.3967,-6.3732,-6.3732,-6.3733,0,-6.3151,-6.3245,-6.3231,-6.3303,-6.3333,-6.3291,-6.3373,-6.3398,-6.345,-6.3471,-6.3434,-6.355,-6.357,-6.3678,-6.3715,-6.3737,-6.3758,-6.3717,-6.3878,-6.3893,-6.3908,-6.3958,-6.3978,-6.3738,-6.3737,-6.3737,-6.3736,0,-6.3331,-6.3396,-6.3458,-6.351,-6.3547,-6.3624,-6.3619,-6.3659,-6.3643,-6.3646,-6.3735,-6.3757,-6.3811,-6.3835,-6.382,-6.3941,-6.3919,-6.3881,-6.3815,-6.3935,-6.3981,-6.4,-6.3746,-6.3744,-6.3742,-6.3741,0,0,-6.3527,-6.3568,-6.3591,-6.3613,-6.365,-6.3699,-6.3773,-6.3826,-6.3859,-6.3895,-6.3955,-6.4035,-6.3999,-6.4027,-6.4014,-6.4066,-6.4182,-6.402,-6.4021,-6.4049,-6.4314,-6.4342,-6.4365,-6.4162,-6.4165,-6.4168,-6.4311,0,-6.3672,-6.3802,-6.379,-6.3912,-6.3971,-6.3931,-6.3994,-6.4023,-6.4027,-6.4076,-6.4081,-6.4137,-6.4086,-6.4103,-6.4152,-6.4158,-6.4235,-6.4147,-6.4216,-6.4218,-6.4208,-6.439,-6.442,-6.4554,-6.4329,-6.4332,-6.4334,0,-6.386,-6.3903,-6.4032,-6.4057,-6.4082,-6.4139,-6.4186,-6.4234,-6.4264,-6.4263,-6.4295,-6.4272,-6.4344,-6.4277,-6.4374,-6.4314,-6.4341,-6.4348,-6.4353,-6.4358,-6.4283,-6.4399,-6.4596,-6.4616,-6.4363,-6.4361,-6.4359,0,-6.3989,-6.4079,-6.4166,-6.4187,-6.422,-6.4261,-6.4276,-6.4302,-6.4334,-6.4374,-6.4394,-6.4442,-6.4468,-6.4504,-6.4494,-6.4446,-6.4593,-6.4525,-6.4593,-6.4593,-6.4625,-6.4623,-6.4829,-6.4644,-6.4644,-6.4643,-6.4643,0,-6.4152,-6.4232,-6.4224,-6.4279,-6.4365,-6.435,-6.4436,-6.4446,-6.4469,-6.4523,-6.449,-6.4541,-6.4525,-6.4574,-6.4567,-6.4647,-6.4659,-6.4659,-6.4656,-6.4662,-6.4662,-6.4679,-6.4669,-6.4649,-6.4647,-6.4646,-6.4646,0,-6.4311,-6.431,-6.4402,-6.4425,-6.4433,-6.4496,-6.4515,-6.4564,-6.4566,-6.4634,-6.4648,-6.465,-6.4706,-6.47,-6.4762,-6.4757,-6.4856,-6.4843,-6.4847,-6.4843,-6.4911,-6.4904,-6.5134,-6.5162,-6.496,-6.4962,-6.4964,0,-6.4415,-6.4476,-6.4505,-6.4539,-6.4557,-6.4613,-6.4645,-6.4631,-6.4665,-6.4703,-6.4748,-6.4801,-6.4843,-6.4933,-6.4939,-6.4986,-6.4972,-6.505,-6.4979,-6.4982,-6.4972,-6.4968,-6.4973,-6.5063,-6.5066,-6.5068,-6.5069,0,-6.46,-6.4596,-6.4644,-6.4692,-6.4732,-6.4769,-6.4802,-6.4831,-6.482,-6.486,-6.4917,-6.495,-6.5013,-6.5065,-6.5109,-6.5122,-6.5094,-6.5091,-6.5109,-6.5115,-6.5115,-6.5115,-6.4884,-6.5086,-6.5084,-6.5083,-6.5082,-6.5081,-6.4734,-6.4785,-6.4813,-6.4867,-6.4891,-6.4922,-6.497,-6.4977,-6.5024,-6.5076,-6.5064,-6.5128,-6.5154,-6.521,-6.5228,-6.5276,-6.5248,-6.5274,-6.5281,-6.5287,-6.5294,-6.5108,-6.5284,-6.5284,-6.5283,-6.5283,-6.5282,0,-6.4916,-6.4932,-6.4982,-6.5029,-6.5072,-6.5041,-6.5076,-6.5113,-6.517,-6.5197,-6.5239,-6.5303,-6.5353,-6.5362,-6.5409,-6.5446,-6.5434,-6.5459,-6.5456,-6.5459,-6.5318,-6.5297,-6.5468,-6.5468,-6.5468,-6.5468,-6.5468,-6.5468,-6.5016,-6.5099,-6.5098,-6.5192,-6.5207,-6.527,-6.5292,-6.532,-6.5342,-6.5415,-6.5457,-6.5463,-6.5482,-6.553,-6.5574,-6.5575,-6.5593,-6.5623,-6.5619,-6.5487,-6.5469,-6.5451,-6.5432,-6.5628,-6.5628,-6.5756,-6.5757,-6.5758]}]]